Radiation Dose at Monitoring Post of Fukushima Daini Nuclear Power Station
Date,Time,MP-1(microSv/h),MP-2(microSv/h),MP-3(microSv/h),MP-4(microSv/h),MP-5(microSv/h),MP-6(microSv/h),MP-7(microSv/h),Wind Direction,Wind Velocity(m/s),Rain
2017/08/24,00:00,0.351,0.214,0.345,0.325,0.315,0.173,0.105,northwest,3.1,No
2017/08/24,00:10,0.348,0.212,0.350,0.330,0.319,0.173,0.104,northwest,3.2,No
2017/08/24,00:20,0.346,0.215,0.352,0.328,0.321,0.171,0.105,north-northwest,3.2,No
2017/08/24,00:30,0.350,0.215,0.347,0.325,0.319,0.172,0.105,north,3.6,No
2017/08/24,00:40,0.349,0.212,0.347,0.325,0.316,0.174,0.105,northwest,1.9,No
2017/08/24,00:50,0.345,0.215,0.352,0.328,0.318,0.171,0.105,west-northwest,2.5,No
2017/08/24,01:00,0.345,0.214,0.350,0.329,0.320,0.171,0.105,west,2.1,No
2017/08/24,01:10,0.349,0.214,0.348,0.325,0.319,0.173,0.105,southwest,0.8,No
2017/08/24,01:20,0.347,0.212,0.348,0.328,0.316,0.171,0.105,southwest,1.3,No
2017/08/24,01:30,0.346,0.214,0.350,0.331,0.316,0.172,0.105,west,0.7,No
2017/08/24,01:40,0.348,0.214,0.347,0.327,0.321,0.173,0.104,northwest,1.2,No
2017/08/24,01:50,0.349,0.214,0.347,0.324,0.319,0.172,0.105,north,1.3,No
2017/08/24,02:00,0.346,0.215,0.352,0.330,0.317,0.171,0.105,northeast,1.3,No
2017/08/24,02:10,0.346,0.214,0.349,0.328,0.319,0.173,0.105,east,1.4,No
2017/08/24,02:20,0.350,0.212,0.346,0.327,0.320,0.172,0.104,east-southeast,1.1,No
2017/08/24,02:30,0.350,0.215,0.349,0.326,0.317,0.171,0.104,east,0.8,No
2017/08/24,02:40,0.345,0.215,0.351,0.329,0.315,0.171,0.106,east-northeast,0.9,No
2017/08/24,02:50,0.348,0.212,0.348,0.327,0.318,0.171,0.105,southeast,1.2,No
2017/08/24,03:00,0.351,0.215,0.346,0.325,0.321,0.171,0.104,south-southeast,1.6,No
2017/08/24,03:10,0.347,0.214,0.351,0.330,0.318,0.171,0.106,south-southeast,1.1,No
2017/08/24,03:20,0.344,0.213,0.349,0.329,0.316,0.172,0.106,south-southwest,1.4,No
2017/08/24,03:30,0.349,0.215,0.346,0.326,0.319,0.171,0.105,south,1.9,No
2017/08/24,03:40,0.347,0.215,0.351,0.326,0.319,0.171,0.105,south-southwest,1.1,No
2017/08/24,03:50,0.345,0.212,0.349,0.330,0.315,0.172,0.105,west-southwest,0.6,No
2017/08/24,04:00,0.348,0.215,0.346,0.329,0.318,0.171,0.105,south,1.1,No
2017/08/24,04:10,0.349,0.215,0.350,0.326,0.322,0.171,0.104,south-southwest,0.7,No
2017/08/24,04:20,0.346,0.213,0.351,0.328,0.319,0.172,0.105,west-southwest,2.0,No
2017/08/24,04:30,0.346,0.213,0.348,0.328,0.316,0.172,0.105,west-southwest,1.5,No
2017/08/24,04:40,0.351,0.214,0.347,0.327,0.319,0.171,0.105,southwest,1.7,No
2017/08/24,04:50,0.348,0.213,0.352,0.325,0.321,0.172,0.104,southwest,1.7,No
2017/08/24,05:00,0.344,0.213,0.349,0.329,0.317,0.173,0.104,southwest,1.8,No
2017/08/24,05:10,0.348,0.215,0.347,0.328,0.317,0.171,0.105,south-southwest,2.2,No
2017/08/24,05:20,0.349,0.213,0.351,0.325,0.319,0.172,0.104,southwest,3.2,No
2017/08/24,05:30,0.346,0.214,0.350,0.330,0.318,0.172,0.106,southwest,3.3,No
2017/08/24,05:40,0.344,0.215,0.347,0.330,0.316,0.170,0.105,southwest,3.3,No
2017/08/24,05:50,0.349,0.214,0.351,0.325,0.320,0.171,0.105,southwest,3.2,No
2017/08/24,06:00,0.348,0.212,0.352,0.327,0.320,0.173,0.105,southwest,3.1,No
2017/08/24,06:10,0.344,0.214,0.349,0.329,0.318,0.172,0.104,west-southwest,3.1,No
2017/08/24,06:20,0.345,0.215,0.345,0.327,0.314,0.171,0.104,southwest,3.1,No
2017/08/24,06:30,0.350,0.214,0.351,0.324,0.315,0.172,0.106,-,CALM,No
2017/08/24,06:40,0.348,0.212,0.349,0.327,0.320,0.173,0.105,-,CALM,No
2017/08/24,06:50,0.346,0.214,0.346,0.330,0.319,0.171,0.105,-,CALM,No
2017/08/24,07:00,0.348,0.214,0.346,0.327,0.317,0.172,0.105,-,CALM,No
2017/08/24,07:10,0.347,0.213,0.347,0.325,0.315,0.173,0.104,-,CALM,No
2017/08/24,07:20,0.347,0.212,0.350,0.323,0.314,0.173,0.104,-,CALM,No
2017/08/24,07:30,0.346,0.212,0.350,0.324,0.316,0.172,0.105,-,CALM,No
2017/08/24,07:40,0.346,0.212,0.348,0.325,0.316,0.171,0.105,-,CALM,No
2017/08/24,07:50,0.348,0.212,0.347,0.326,0.316,0.172,0.105,-,CALM,No
2017/08/24,08:00,0.349,0.212,0.347,0.326,0.318,0.173,0.104,-,CALM,No
2017/08/24,08:10,0.347,0.213,0.346,0.325,0.317,0.173,0.105,-,CALM,No
2017/08/24,08:20,0.346,0.213,0.346,0.327,0.316,0.172,0.105,-,CALM,No
2017/08/24,08:30,0.345,0.213,0.347,0.326,0.318,0.171,0.104,-,CALM,No
2017/08/24,08:40,0.344,0.212,0.345,0.326,0.318,0.172,0.101,-,CALM,No
2017/08/24,08:50,0.344,0.212,0.347,0.325,0.318,0.172,0.103,-,CALM,No
2017/08/24,09:00,0.343,0.212,0.352,0.326,0.316,0.172,0.103,-,CALM,No
2017/08/24,09:10,0.345,0.213,0.352,0.326,0.318,0.173,0.104,-,CALM,No
2017/08/24,09:20,0.345,0.215,0.350,0.327,0.319,0.172,0.104,-,CALM,No
2017/08/24,09:30,0.347,0.215,0.349,0.326,0.319,0.172,0.104,-,-,No
2017/08/24,09:40,0.348,0.215,0.348,0.328,0.320,0.174,0.104,-,-,No
2017/08/24,09:50,0.348,0.214,0.348,0.328,0.320,0.173,0.104,-,-,No
2017/08/24,10:00,0.348,0.216,0.349,0.329,0.320,0.173,0.104,-,-,No
2017/08/24,10:10,0.349,0.215,0.348,0.329,0.320,0.172,0.102,-,-,No
2017/08/24,10:20,0.347,0.215,0.348,0.329,0.319,0.173,0.102,-,-,No
2017/08/24,10:30,0.348,0.216,0.347,0.329,0.320,0.173,0.101,-,-,No
2017/08/24,10:40,0.348,0.214,0.347,0.328,0.319,0.172,0.102,-,-,No
2017/08/24,10:50,0.348,0.214,0.349,0.330,0.321,0.173,0.104,-,-,No
2017/08/24,11:00,0.347,0.216,0.349,0.328,0.320,0.172,0.103,-,-,No
2017/08/24,11:10,0.348,0.216,0.351,0.330,0.320,0.172,0.102,-,-,No
2017/08/24,11:20,0.351,0.215,0.350,0.330,0.319,0.172,0.102,-,-,No
2017/08/24,11:30,0.348,0.215,0.350,0.328,0.319,0.172,0.103,-,-,No
2017/08/24,11:40,0.348,0.215,0.352,0.328,0.319,0.172,0.101,-,-,No
2017/08/24,11:50,0.348,0.214,0.348,0.328,0.320,0.173,0.101,-,-,No
2017/08/24,12:00,0.347,0.213,0.350,0.327,0.317,0.173,0.102,-,-,No
2017/08/24,12:10,0.347,0.214,0.348,0.325,0.316,0.172,0.102,-,-,No
2017/08/24,12:20,0.347,0.214,0.348,0.327,0.316,0.172,0.101,-,-,No
2017/08/24,12:30,0.345,0.215,0.349,0.327,0.318,0.172,0.101,-,-,No
2017/08/24,12:40,0.346,0.214,0.348,0.326,0.317,0.173,0.102,-,-,No
2017/08/24,12:50,0.345,0.213,0.347,0.327,0.318,0.172,0.101,-,-,No
2017/08/24,13:00,0.346,0.213,0.349,0.327,0.318,0.173,0.102,-,-,No
2017/08/24,13:10,0.346,0.213,0.347,0.326,0.318,0.172,0.102,-,-,No
2017/08/24,13:20,0.346,0.214,0.347,0.328,0.317,0.172,0.101,-,-,No
2017/08/24,13:30,0.344,0.214,0.349,0.327,0.317,0.173,0.102,-,-,No
2017/08/24,13:40,0.345,0.214,0.348,0.327,0.317,0.172,0.101,-,-,No
2017/08/24,13:50,0.345,0.213,0.347,0.326,0.319,0.172,0.102,-,-,No
2017/08/24,14:00,0.349,0.213,0.349,0.327,0.319,0.173,0.102,-,-,No
2017/08/24,14:10,0.352,0.212,0.348,0.328,0.318,0.173,0.103,-,-,No
2017/08/24,14:20,0.351,0.213,0.349,0.327,0.318,0.173,0.102,-,-,No
2017/08/24,14:30,0.349,0.214,0.349,0.327,0.320,0.173,0.104,-,-,No
2017/08/24,14:40,0.346,0.214,0.350,0.328,0.318,0.174,0.103,-,-,No
2017/08/24,14:50,0.347,0.214,0.351,0.327,0.317,0.173,0.103,-,-,No
2017/08/24,15:00,0.346,0.214,0.351,0.327,0.319,0.173,0.103,-,-,No
2017/08/24,15:10,0.347,0.213,0.347,0.327,0.319,0.173,0.103,-,-,No
2017/08/24,15:20,0.345,0.214,0.350,0.327,0.317,0.173,0.103,-,-,No
2017/08/24,15:30,0.346,0.214,0.348,0.326,0.318,0.173,0.103,-,-,No
2017/08/24,15:40,0.346,0.214,0.349,0.327,0.318,0.174,0.102,-,-,No
2017/08/24,15:50,0.345,0.215,0.349,0.328,0.319,0.174,0.103,-,-,No
2017/08/24,16:00,0.345,0.214,0.350,0.329,0.319,0.173,0.103,-,-,No
2017/08/24,16:10,0.344,0.214,0.349,0.326,0.318,0.173,0.103,-,-,No
2017/08/24,16:20,0.347,0.214,0.349,0.327,0.318,0.173,0.103,-,-,No
2017/08/24,16:30,0.353,0.213,0.352,0.328,0.319,0.172,0.103,-,-,No
2017/08/24,16:40,0.351,0.213,0.353,0.327,0.317,0.173,0.104,-,-,No
2017/08/24,16:50,0.350,0.213,0.355,0.330,0.319,0.172,0.104,-,-,No
2017/08/24,17:00,0.349,0.213,0.353,0.330,0.319,0.174,0.104,-,-,No
2017/08/24,17:10,0.348,0.213,0.352,0.329,0.319,0.174,0.104,-,-,No
2017/08/24,17:20,0.346,0.215,0.351,0.328,0.319,0.172,0.105,-,-,No
2017/08/24,17:30,0.346,0.214,0.350,0.329,0.319,0.173,0.104,-,-,No
2017/08/24,17:40,0.347,0.214,0.348,0.329,0.318,0.174,0.104,-,-,No
2017/08/24,17:50,0.346,0.214,0.350,0.328,0.318,0.173,0.105,-,-,No
2017/08/24,18:00,0.348,0.214,0.348,0.328,0.318,0.175,0.105,-,-,No
2017/08/24,18:10,0.353,0.214,0.349,0.333,0.318,0.174,0.105,-,-,No
2017/08/24,18:20,0.350,0.216,0.349,0.333,0.317,0.173,0.106,-,-,No
2017/08/24,18:30,0.349,0.218,0.354,0.331,0.318,0.173,0.105,-,-,No
2017/08/24,18:40,0.347,0.215,0.354,0.330,0.322,0.174,0.105,-,-,No
2017/08/24,18:50,0.348,0.215,0.353,0.326,0.323,0.174,0.105,-,-,No
2017/08/24,19:00,0.348,0.215,0.351,0.327,0.320,0.174,0.105,-,-,No
2017/08/24,19:10,0.353,0.216,0.350,0.331,0.320,0.174,0.105,-,-,No
2017/08/24,19:20,0.351,0.217,0.349,0.334,0.318,0.173,0.106,-,-,No
2017/08/24,19:30,0.348,0.215,0.353,0.330,0.317,0.173,0.106,-,-,No
2017/08/24,19:40,0.347,0.214,0.355,0.330,0.321,0.174,0.105,-,-,No
2017/08/24,19:50,0.349,0.216,0.351,0.327,0.323,0.175,0.105,-,-,No
2017/08/24,20:00,0.352,0.216,0.350,0.332,0.321,0.174,0.106,-,-,No
2017/08/24,20:10,0.351,0.215,0.349,0.334,0.319,0.173,0.106,-,-,No
2017/08/24,20:20,0.349,0.214,0.354,0.332,0.317,0.173,0.106,-,-,No
2017/08/24,20:30,0.346,0.215,0.353,0.329,0.322,0.174,0.105,-,-,No
2017/08/24,20:40,0.352,0.216,0.350,0.328,0.322,0.174,0.104,-,-,No
2017/08/24,20:50,0.352,0.215,0.348,0.333,0.320,0.173,0.106,-,-,No
2017/08/24,21:00,0.348,0.214,0.350,0.331,0.318,0.173,0.105,-,-,No
2017/08/24,21:10,0.344,0.216,0.353,0.328,0.317,0.174,0.105,-,-,No
2017/08/24,21:20,0.351,0.216,0.353,0.328,0.322,0.174,0.104,-,-,No
2017/08/24,21:30,0.352,0.215,0.349,0.330,0.322,0.172,0.106,-,-,No
2017/08/24,21:40,0.350,0.214,0.349,0.334,0.321,0.174,0.106,-,-,No
2017/08/24,21:50,0.347,0.216,0.352,0.331,0.317,0.174,0.105,-,-,No
2017/08/24,22:00,0.349,0.216,0.353,0.329,0.317,0.173,0.105,-,-,No
2017/08/24,22:10,0.352,0.214,0.352,0.325,0.321,0.173,0.106,-,-,No
2017/08/24,22:20,0.349,0.215,0.350,0.332,0.320,0.174,0.106,-,-,No
2017/08/24,22:30,0.346,0.217,0.350,0.332,0.319,0.174,0.106,-,-,No
2017/08/24,22:40,0.349,0.216,0.355,0.329,0.315,0.174,0.105,-,-,No
2017/08/24,22:50,0.352,0.213,0.354,0.328,0.322,0.172,0.105,-,-,No
2017/08/24,23:00,0.349,0.217,0.352,0.332,0.320,0.174,0.106,-,-,No
2017/08/24,23:10,0.347,0.216,0.348,0.332,0.319,0.175,0.106,-,-,No
2017/08/24,23:20,0.351,0.214,0.352,0.330,0.318,0.173,0.105,-,-,No
2017/08/24,23:30,0.352,0.215,0.356,0.326,0.320,0.173,0.105,-,-,No
2017/08/24,23:40,0.349,0.217,0.352,0.332,0.322,0.174,0.106,-,-,No
2017/08/24,23:50,0.347,0.215,0.349,0.333,0.319,0.173,0.105,-,-,No
